Tracking 30056 objects as of 10-Dec-2024
HD Live streaming from Space Station
objects crossing your sky now

STARLINK-30144

Track STARLINK-30144 now!
10-day predictions
STARLINK-30144 is classified as:


NORAD ID: 56835
Int'l Code: 2023-079N
Perigee: 565.2 km
Apogee: 567.2 km
Inclination: 43.0 °
Period: 95.8 minutes
Semi major axis: 6937 km
RCS: Unknown
Launch date: June 4, 2023
Source: United States (US)
Launch site: AIR FORCE EASTERN TEST RANGE (AFETR)
Your satellite tracking list
Your tracking list is empty




NASA's NSSDC Master Catalog

Two Line Element Set (TLE):
1 56835U 23079N   24344.89738785  .00000811  00000-0  75095-4 0  9990
2 56835  43.0061  58.4363 0001411 266.3054  93.7627 15.02536913 84141
Source of the keplerian elements: AFSPC